This demonstration page uses our WeatherBlox Daily Observations layout. Learn more.

Left ArrowRight Arrow

44.31136, -96.79839

Hourly Observations for August 28, 2018

Temp ( °F °C ) Dew Point ( °F °C ) Humidity (%) Winds ( mph kmh ) Pressure ( in mb ) Visibility ( mi km ) Precip ( " mm )
12:38 am 00:38 Cloudy 61 16 57 14 88 88 E 5 7 29.74 1007 9 14 0.00 0.00
12:56 am 00:56 Partly Cloudy 60 15.6 58 14.4 93 93 SE 9 15 29.79 1009 10 16 0.00 0.00
1:51 am 01:51 Mostly Clear 59 15 57 14 94 94 WNW 7 11 29.77 1008 9 14 0.00 0.00
1:56 am 01:56 Partly Cloudy 59 15 58 14.4 96 96 WNW 8 13 29.84 1011 7 11 0.00 0.00
2:04 am 02:04 Mostly Cloudy with Light Rain 59 15 57 14 94 94 N 8 13 29.74 1007 6 10 0.00 0.03
2:42 am 02:42 Cloudy with Mist and Fog 59 15 59 15 100 100 NNW 6 9 29.77 1008 4 6 0.00 0.03
2:56 am 02:56 Cloudy with Mist and Fog 59 15 59 15 100 100 N 8 13 29.84 1010 3 5 0.00 0.03
3:41 am 03:41 Cloudy with Nearby Thunderstorms 59 15 57 14 94 94 NW 7 11 29.83 1010 6 10 0.00 0.03
3:56 am 03:56 Cloudy with Light Rain 59 15 58 14.4 96 96 N 12 19 29.85 1011 5 8 0.01 0.25
4:24 am 04:24 Cloudy 57 14 57 14 100 100 NNW 10 17 29.83 1010 9 14 0.00 0.03
4:56 am 04:56 Cloudy 58 14.4 57 13.9 97 97 N 7 11 29.89 1012 10 16 0.00 0.03
5:31 am 05:31 Cloudy with Light Rain 57 14 57 14 100 100 NNW 7 11 29.85 1011 10 16 0.00 0.03
5:41 am 05:41 Cloudy 57 14 57 14 100 100 WNW 3 6 29.88 1012 10 16 0.00 0.03
5:56 am 05:56 Cloudy with Rain 58 14.4 57 13.9 97 97 NNE 6 9 29.90 1013 9 14 0.00 0.03
6:47 am 06:47 Cloudy with Light Rain 57 14 55 13 94 94 N 10 17 29.85 1011 10 16 0.03 0.76
6:56 am 06:56 Cloudy with Light Rain 57 13.9 56 13.3 96 96 NNW 12 19 29.93 1014 8 13 0.03 0.76
7:06 am 07:06 Cloudy with Light Rain 57 14 55 13 94 94 NNW 9 15 29.85 1011 8 13 0.00 0.03
7:18 am 07:18 Cloudy with Light Rain 57 14 55 13 94 94 N 10 17 29.85 1011 10 16 0.00 0.03
7:56 am 07:56 Mostly Cloudy 56 13.3 54 12.2 93 93 N 10 17 29.91 1013 10 16 0.00 0.03
8:31 am 08:31 Cloudy 55 13 54 12 94 94 N 10 17 29.88 1012 10 16 0.00 0.03
8:56 am 08:56 Mostly Cloudy 56 13.3 53 11.7 90 90 NNW 13 20 29.95 1014 10 16 0.00 0.03
9:05 am 09:05 Partly Cloudy 55 13 54 12 94 94 N 13 20 29.88 1012 10 16 0.00 0.00
9:15 am 09:15 Mostly Cloudy 55 13 54 12 94 94 NNW 10 17 29.91 1013 10 16 0.00 0.00
9:33 am 09:33 Partly Cloudy 55 13 52 11 88 88 N 15 24 29.91 1013 10 16 0.00 0.00
9:56 am 09:56 Sunny 56 13.3 51 10.6 84 84 NNW 14 22 29.98 1015 10 16 0.00 0.00
10:56 am 10:56 Mostly Sunny 58 14.4 52 11.1 81 81 NNW 13 20 30.03 1017 10 16 0.00 0.00
11:25 am 11:25 Mostly Cloudy 57 14 52 11 82 82 NNW 14 22 29.97 1015 10 16 0.00 0.00
11:56 am 11:56 Mostly Cloudy 58 14.4 51 10.6 78 78 NNW 13 20 30.03 1017 10 16 0.00 0.00
12:04 pm 12:04 Partly Cloudy 57 14 52 11 82 82 NNW 13 20 30.00 1016 10 16 0.00 0.00
12:25 pm 12:25 Mostly Cloudy 59 15 52 11 77 77 NW 16 26 29.97 1015 10 16 0.00 0.00
12:56 pm 12:56 Mostly Cloudy 59 15 51 10.6 75 75 NNW 12 19 30.03 1017 10 16 0.00 0.00
1:47 pm 13:47 Mostly Cloudy 61 16 52 11 72 72 NNW 13 20 29.97 1015 10 16 0.00 0.00
1:56 pm 13:56 Partly Cloudy 60 15.6 52 11.1 75 75 NW 14 22 30.02 1017 10 16 0.00 0.00
2:13 pm 14:13 Mostly Cloudy 61 16 52 11 72 72 NNW 17 28 29.94 1014 10 16 0.00 0.00
2:43 pm 14:43 Mostly Cloudy 59 15 50 10 72 72 NW 13 20 29.97 1015 10 16 0.00 0.00
2:56 pm 14:56 Mostly Cloudy with Light Rain 59 15 51 10.6 75 75 NW 13 20 30.04 1017 10 16 0.00 0.03
3:20 pm 15:20 Cloudy 61 16 52 11 72 72 NNW 16 26 29.97 1015 10 16 0.00 0.03
3:56 pm 15:56 Mostly Cloudy 62 16.7 52 11.1 70 70 NW 15 24 30.05 1018 10 16 0.00 0.03
4:38 pm 16:38 Partly Cloudy 61 16 52 11 72 72 NW 12 19 30.00 1016 10 16 0.00 0.00
4:56 pm 16:56 Mostly Sunny 61 16.1 51 10.6 70 70 NNW 12 19 30.05 1018 10 16 0.00 0.00
5:10 pm 17:10 Mostly Cloudy 61 16 52 11 72 72 NW 10 17 29.97 1015 10 16 0.00 0.00
5:38 pm 17:38 Partly Cloudy 61 16 52 11 72 72 NW 9 15 30.00 1016 10 16 0.00 0.00
5:56 pm 17:56 Sunny 61 16.1 51 10.6 70 70 NW 8 13 30.05 1018 10 16 0.00 0.00
6:56 pm 18:56 Sunny 60 15.6 52 11.1 75 75 WNW 6 9 30.06 1018 10 16 0.00 0.00
7:56 pm 19:56 Sunny 60 15.6 51 10.6 72 72 NW 8 13 30.07 1018 10 16 0.00 0.00
8:56 pm 20:56 Clear 56 13.3 51 10.6 84 84 NW 5 7 30.09 1019 8 13 0.00 0.00
9:56 pm 21:56 Clear 54 12.2 51 10.6 90 90 Calm 30.11 1020 10 16 0.00 0.00
10:56 pm 22:56 Clear 52 11.1 50 10 93 93 W 3 6 30.12 1020 10 16 0.00 0.00
11:56 pm 23:56 Clear 51 10.6 50 10 96 96 Calm 30.12 1020 10 16 0.00 0.00

Powered by AerisWeather